Wind_Speed
21 23 24 24 24 26 27 27 27 26 26 26 28 28 26 25 23 23 21 22 22 24 24 25 26 28 29 30 31 33 34 34 34 34 34 34 34 33 33 33 34 34 35 36
24 25 25 24 25 26 25 25 25 25 24 25 25 24 21 19 17 16 18 18 18 19 21 22 24 26 28 30 31 32 33 33 34 34 33 33 33 33 33 33 33 34 35 35
28 28 27 26 25 25 24 23 23 23 22 21 21 21 19 17 15 14 14 15 17 19 21 23 25 27 28 29 30 31 31 32 32 32 32 32 32 32 33 33 33 33 34 34
31 30 29 27 25 24 23 22 21 20 20 19 19 19 19 17 16 15 15 15 17 19 21 23 24 26 27 28 28 28 29 29 30 30 32 32 32 31 31 32 31 31 31 32
32 32 30 27 26 23 22 20 20 20 19 18 17 17 18 17 16 16 15 15 16 17 18 20 21 23 24 24 24 25 25 25 26 27 27 27 27 26 26 26 26 27 27 28
29 31 30 26 25 22 22 20 20 19 18 17 16 16 17 17 17 16 16 16 16 16 16 17 17 18 19 20 20 20 21 21 22 22 22 22 21 20 20 21 22 23 25 27
27 30 31 28 27 25 23 22 21 20 19 18 17 17 17 17 17 16 15 15 15 14 14 14 14 15 15 16 16 16 17 17 16 16 16 15 15 16 17 19 20 22 24 25
26 29 29 30 31 28 26 23 22 21 20 19 18 17 17 17 17 16 15 14 12 11 11 11 11 12 12 12 12 12 12 12 12 12 12 12 13 15 16 18 19 21 22 24
26 27 28 31 31 30 28 25 23 23 22 20 18 17 17 17 16 15 14 13 11 10 10 9 9 9 9 10 10 10 10 10 10 11 11 11 13 14 15 16 18 19 21 23
25 25 28 29 31 31 29 26 25 24 23 21 20 19 18 17 16 15 14 13 11 10 9 7 6 6 6 7 8 8 9 9 9 9 10 11 12 13 14 15 17 19 22 24
23 22 24 25 27 29 29 28 26 26 25 24 22 20 20 19 18 17 15 14 12 11 9 8 7 5 5 5 6 7 8 8 9 9 9 10 11 13 14 16 18 20 23 25
22 22 23 22 23 26 27 27 26 26 25 25 24 22 21 21 20 19 18 16 15 13 12 10 9 8 7 7 7 7 8 9 9 10 10 11 12 13 15 17 19 21 23 25
23 22 22 21 22 23 24 25 25 24 24 24 24 23 21 21 21 20 20 19 17 16 15 14 12 12 11 10 10 10 10 10 11 11 12 13 14 15 15 17 19 21 22 23
25 24 23 22 22 21 22 23 24 23 23 23 23 22 22 22 22 22 22 21 20 19 19 18 17 16 15 14 13 13 13 13 13 14 14 15 15 15 16 16 18 20 21 21
27 26 24 23 22 21 21 22 23 23 23 23 22 22 22 22 23 23 23 23 23 22 22 21 20 20 19 18 17 17 16 16 16 16 16 16 16 16 16 16 17 18 19 19
28 27 26 24 23 22 22 23 23 24 24 24 23 23 22 22 23 24 25 25 24 24 23 23 23 23 22 21 21 20 19 19 18 18 17 17 17 16 16 16 16 17 17 18
29 28 27 26 25 24 23 23 24 24 24 24 24 25 24 23 23 23 24 25 25 25 25 25 25 25 24 23 23 22 21 20 20 19 18 18 17 16 16 16 16 16 17 18
30 30 29 28 27 26 26 25 25 25 25 25 25 25 25 25 23 24 25 26 25 24 25 26 27 27 26 25 25 24 23 22 21 20 19 18 18 18 17 17 17 17 18 19
32 31 32 31 31 30 28 26 25 25 26 27 27 27 26 25 25 26 27 27 26 25 26 27 27 28 28 27 26 25 24 23 22 21 20 19 19 19 19 19 19 18 19 21
33 33 34 34 34 32 31 29 28 27 27 28 29 29 29 27 27 28 28 28 27 27 27 28 27 26 27 28 27 26 25 24 23 23 22 21 20 20 20 20 20 20 21 22
37 37 38 38 37 36 35 34 33 31 31 31 32 33 33 32 31 31 31 30 28 29 29 29 27 26 26 27 28 27 26 25 24 23 22 22 21 21 21 21 21 21 22 23
42 43 43 41 42 42 41 39 38 37 36 35 35 36 36 35 34 33 32 32 31 32 31 29 27 26 26 26 27 27 26 25 24 24 23 22 22 21 22 22 22 23 23 24
51 50 49 48 47 47 45 44 44 42 40 38 38 38 39 37 36 35 32 31 32 32 31 29 27 26 25 25 24 25 25 25 25 24 23 23 22 22 22 23 23 24 24 25
60 59 58 57 55 53 51 48 46 44 43 41 40 39 38 38 36 35 33 32 33 33 32 30 28 25 24 23 23 24 24 24 24 24 24 23 23 23 23 24 24 25 25 26
66 65 64 63 60 56 54 51 47 45 43 41 39 38 37 36 35 34 33 33 33 33 32 30 28 26 24 22 21 22 23 23 24 24 24 23 23 22 23 24 25 26 26 27
63 63 62 60 58 55 52 48 44 41 39 37 36 35 35 34 33 32 32 32 33 33 32 30 28 26 24 21 20 21 21 22 22 22 22 22 22 23 23 24 25 25 26 27
51 52 52 51 49 46 44 40 37 35 34 33 32 31 31 31 31 31 31 31 31 31 31 31 30 27 24 22 21 21 21 21 21 21 21 21 21 22 24 25 25 26 26 27
Wind_Direction
292 293 295 300 304 307 310 314 317 321 321 318 315 311 305 298 291 285 279 279 275 266 265 264 261 260 258 258 259 260 263 265 267 269 270 271 272 274 275 275 276 277 278 279
290 291 293 298 301 304 308 314 319 323 322 320 323 320 316 310 300 289 281 279 276 269 265 261 258 256 256 257 258 260 261 263 266 268 269 270 271 273 273 274 275 276 277 279
288 287 289 294 297 303 307 312 318 323 324 323 326 329 328 327 315 301 289 283 278 271 266 263 260 257 255 257 258 259 260 262 263 264 267 268 270 271 273 274 275 276 278 279
285 282 284 290 293 298 303 311 317 324 328 327 326 327 328 326 319 309 298 288 282 276 272 268 264 260 257 257 257 258 259 259 260 261 264 267 269 271 272 274 275 277 279 281
280 279 279 282 287 293 298 306 312 320 327 330 329 326 325 327 324 316 308 299 291 284 279 274 268 263 260 259 258 258 258 259 259 260 264 268 270 272 274 276 277 279 282 283
280 280 283 279 280 286 289 295 302 311 319 328 333 333 333 333 330 325 318 310 302 297 290 283 277 271 266 261 259 258 258 260 262 264 267 270 272 275 277 279 282 284 286 289
287 283 283 285 278 279 284 289 296 303 312 321 327 331 334 336 337 333 328 321 314 308 299 291 285 278 271 264 260 258 256 258 262 266 268 271 274 277 279 283 287 290 293 295
294 288 287 287 283 280 279 284 291 296 301 308 315 320 324 329 334 337 336 332 327 320 311 301 291 282 273 265 262 260 259 259 262 266 269 272 276 282 286 290 293 295 297 299
297 292 289 286 284 282 280 281 284 288 291 295 300 305 311 315 321 327 332 334 331 326 319 310 300 287 273 266 261 260 261 262 265 268 273 278 283 287 291 294 296 298 301 303
303 297 289 286 283 281 279 278 279 282 285 287 290 293 297 302 308 313 318 324 326 327 324 319 310 297 281 269 262 259 259 262 266 271 276 281 285 289 293 297 301 304 307 308
308 300 292 289 285 281 278 277 280 281 281 281 283 286 288 291 296 301 306 309 312 314 313 312 308 300 289 279 270 264 263 266 270 273 276 281 287 292 298 303 307 310 313 315
312 304 297 294 288 283 279 278 278 279 278 277 278 281 284 286 289 293 295 296 297 297 298 298 296 292 287 281 274 270 269 271 273 276 280 285 291 296 302 307 312 315 318 320
308 304 302 299 292 288 284 279 277 277 278 277 278 278 280 282 285 287 288 289 288 287 286 285 285 284 282 280 278 275 274 275 277 280 284 289 294 299 305 311 315 318 322 326
303 301 300 298 294 292 288 284 280 279 277 277 276 277 277 276 278 281 283 284 284 282 280 278 278 277 277 277 277 278 277 278 280 284 288 292 295 300 306 311 316 321 324 327
299 297 295 293 291 290 288 285 283 282 280 277 275 276 276 276 276 276 278 280 280 280 279 276 274 274 274 274 275 276 277 278 280 283 287 290 295 300 305 310 315 319 322 325
295 292 289 287 287 285 285 285 285 284 282 279 276 276 277 278 278 278 277 276 277 278 277 275 272 271 271 271 271 272 274 276 278 280 283 287 291 296 300 305 310 314 318 324
294 290 286 284 283 283 283 283 283 282 281 279 279 280 279 278 277 278 278 277 276 276 276 274 271 269 269 269 269 270 271 272 275 277 280 284 287 290 293 298 304 309 315 321
293 288 284 282 281 280 280 281 281 280 279 278 279 281 281 279 276 276 276 277 277 276 277 276 272 267 267 267 266 266 267 269 272 274 278 281 284 288 292 296 301 305 311 317
291 284 281 279 278 276 275 275 276 277 278 279 280 280 279 278 275 273 273 273 275 276 277 279 278 271 266 265 264 263 263 266 269 272 275 278 282 285 288 293 298 302 306 311
285 281 279 275 273 273 270 270 270 272 276 277 278 279 278 277 275 271 267 269 270 272 275 278 279 277 269 263 261 260 261 262 265 269 273 276 279 282 284 288 294 299 304 308
279 276 276 273 268 267 268 266 268 271 273 275 276 278 278 276 274 270 265 264 265 267 270 274 275 276 273 265 259 257 258 259 261 263 266 271 276 280 283 286 290 295 299 303
273 271 268 266 265 265 266 265 268 270 272 274 276 277 278 276 272 268 264 261 260 261 264 266 270 273 273 267 260 256 255 257 258 260 262 266 270 274 278 281 285 290 295 299
269 267 264 262 262 263 264 266 269 269 271 274 275 275 274 272 269 266 261 258 255 255 257 258 261 265 268 266 261 257 255 255 257 259 262 264 268 272 276 280 283 288 293 298
267 266 264 263 263 263 265 267 267 268 271 273 274 273 271 268 265 262 258 252 249 248 250 251 251 256 262 264 261 258 255 255 257 260 262 265 268 272 277 281 284 287 292 296
269 268 267 266 266 266 268 269 269 269 271 272 272 271 267 264 261 257 254 249 244 243 245 246 246 249 255 260 260 257 254 253 257 261 264 267 271 274 277 280 283 286 290 294
271 271 270 269 269 269 270 270 269 269 269 269 267 266 263 260 256 252 250 245 241 239 239 239 240 243 248 253 256 256 254 253 255 259 263 268 273 276 279 281 284 287 290 294
274 272 270 269 268 267 267 266 265 264 264 263 262 260 259 255 252 249 246 241 237 236 236 235 235 237 242 248 252 254 254 253 254 259 264 269 275 277 279 282 285 287 292 295
Height
5804 5801 5799 5797 5794 5790 5786 5782 5777 5772 5767 5762 5756 5751 5746 5743 5740 5740 5740 5741 5741 5742 5743 5744 5745 5746 5748 5749 5750 5751 5752 5753 5754 5755 5756 5757 5758 5758 5758 5758 5758 5758 5757 5756
5798 5795 5793 5791 5788 5785 5781 5777 5772 5767 5762 5757 5751 5746 5741 5737 5735 5734 5734 5735 5735 5735 5735 5736 5736 5738 5739 5740 5741 5742 5743 5744 5745 5746 5747 5748 5748 5748 5749 5749 5749 5748 5748 5747
5791 5788 5786 5786 5783 5780 5776 5772 5768 5763 5759 5753 5748 5743 5738 5734 5732 5730 5729 5729 5728 5728 5728 5728 5728 5729 5730 5730 5731 5732 5733 5735 5735 5736 5737 5738 5739 5739 5739 5739 5739 5739 5738 5737
5782 5782 5780 5781 5777 5774 5771 5767 5764 5759 5754 5749 5745 5740 5736 5732 5729 5726 5725 5723 5722 5721 5721 5720 5720 5720 5721 5722 5723 5724 5724 5726 5727 5727 5728 5729 5730 5730 5730 5730 5730 5730 5729 5728
5774 5772 5772 5773 5770 5768 5765 5762 5759 5755 5751 5747 5742 5737 5733 5729 5726 5723 5721 5719 5717 5716 5714 5713 5713 5713 5713 5714 5715 5716 5717 5718 5719 5719 5720 5721 5721 5721 5722 5722 5722 5721 5721 5719
5766 5763 5762 5765 5763 5761 5760 5757 5754 5751 5747 5744 5740 5735 5731 5727 5723 5720 5717 5715 5713 5711 5709 5708 5708 5707 5707 5707 5708 5709 5710 5711 5712 5712 5713 5714 5714 5715 5715 5715 5715 5714 5713 5711
5758 5755 5753 5755 5754 5754 5754 5751 5748 5745 5742 5740 5736 5733 5729 5725 5721 5718 5714 5712 5709 5707 5706 5704 5703 5703 5703 5703 5704 5705 5705 5706 5706 5707 5708 5708 5709 5709 5709 5709 5708 5707 5705 5704
5751 5748 5749 5747 5745 5746 5745 5744 5742 5739 5738 5735 5733 5729 5726 5723 5719 5716 5713 5710 5707 5705 5703 5701 5700 5700 5699 5700 5700 5700 5701 5702 5702 5703 5703 5704 5704 5704 5704 5703 5702 5701 5699 5697
5745 5744 5741 5738 5737 5736 5736 5736 5735 5733 5732 5731 5729 5726 5723 5720 5717 5714 5711 5708 5706 5703 5701 5700 5698 5697 5697 5697 5697 5697 5698 5699 5699 5700 5700 5700 5700 5699 5699 5698 5697 5695 5693 5690
5738 5736 5733 5731 5729 5728 5728 5728 5727 5726 5725 5725 5724 5722 5720 5717 5715 5712 5709 5707 5704 5702 5700 5698 5696 5695 5695 5694 5694 5695 5695 5696 5696 5696 5696 5695 5695 5695 5694 5693 5691 5689 5686 5683
5734 5731 5727 5724 5722 5720 5719 5719 5719 5718 5717 5717 5717 5716 5714 5712 5710 5708 5706 5704 5702 5700 5698 5697 5695 5694 5693 5692 5692 5692 5692 5692 5692 5692 5692 5691 5691 5690 5689 5687 5685 5683 5680 5677
5729 5725 5721 5718 5715 5713 5711 5711 5710 5710 5709 5709 5709 5709 5708 5706 5704 5703 5702 5700 5699 5697 5696 5694 5693 5692 5691 5690 5690 5689 5689 5689 5688 5688 5688 5687 5686 5685 5684 5682 5680 5677 5674 5671
5722 5718 5714 5711 5708 5706 5704 5703 5702 5701 5701 5700 5700 5700 5700 5699 5698 5697 5696 5695 5694 5693 5692 5691 5690 5689 5688 5687 5687 5686 5686 5685 5685 5684 5683 5683 5682 5680 5679 5677 5674 5672 5668 5665
5715 5711 5708 5705 5702 5699 5697 5695 5694 5693 5693 5693 5692 5692 5692 5691 5691 5690 5689 5688 5688 5687 5687 5686 5685 5685 5684 5683 5683 5682 5682 5681 5680 5679 5678 5678 5677 5675 5674 5672 5669 5666 5663 5660
5708 5704 5701 5698 5695 5693 5690 5688 5687 5686 5685 5685 5684 5684 5684 5683 5683 5682 5682 5681 5681 5680 5680 5680 5679 5679 5678 5678 5678 5677 5677 5676 5675 5674 5673 5672 5671 5670 5668 5667 5664 5662 5659 5656
5699 5696 5693 5690 5687 5685 5684 5682 5680 5678 5677 5676 5676 5676 5676 5675 5675 5674 5673 5673 5672 5672 5672 5672 5672 5672 5672 5671 5671 5671 5671 5670 5670 5669 5668 5667 5666 5665 5663 5662 5660 5657 5655 5651
5690 5687 5683 5681 5679 5677 5675 5674 5672 5670 5669 5668 5668 5667 5667 5667 5666 5666 5665 5664 5664 5664 5664 5663 5663 5663 5664 5664 5664 5664 5664 5663 5663 5663 5662 5661 5660 5659 5658 5657 5655 5653 5650 5647
5679 5676 5673 5671 5669 5667 5666 5664 5663 5662 5660 5659 5658 5658 5657 5657 5657 5657 5656 5656 5656 5655 5655 5654 5654 5655 5655 5656 5656 5656 5656 5656 5656 5656 5655 5655 5654 5653 5652 5651 5649 5647 5645 5642
5667 5664 5661 5659 5658 5656 5655 5654 5653 5652 5651 5649 5648 5648 5648 5648 5648 5648 5647 5647 5647 5647 5646 5645 5645 5645 5646 5646 5647 5648 5648 5649 5649 5649 5648 5648 5647 5647 5645 5644 5643 5641 5639 5636
5654 5651 5648 5646 5644 5643 5642 5642 5641 5641 5640 5639 5638 5637 5637 5637 5637 5637 5637 5637 5638 5638 5637 5636 5636 5636 5636 5636 5638 5639 5640 5641 5641 5641 5641 5641 5641 5640 5639 5638 5637 5635 5633 5630
5640 5637 5635 5632 5630 5629 5628 5628 5628 5628 5628 5627 5627 5626 5626 5626 5626 5626 5626 5627 5629 5628 5628 5628 5628 5628 5627 5627 5628 5630 5631 5632 5633 5634 5634 5634 5633 5633 5632 5631 5630 5628 5626 5624
5625 5623 5619 5616 5614 5614 5613 5613 5613 5613 5613 5613 5613 5613 5613 5613 5613 5613 5614 5616 5618 5617 5618 5618 5619 5619 5618 5618 5619 5621 5622 5624 5625 5626 5626 5626 5626 5626 5625 5624 5623 5622 5619 5617
5606 5603 5601 5598 5597 5596 5596 5597 5597 5597 5598 5598 5599 5598 5598 5599 5599 5600 5602 5604 5605 5606 5607 5609 5611 5611 5610 5610 5611 5613 5614 5615 5617 5618 5618 5619 5619 5618 5618 5617 5616 5614 5612 5610
5582 5580 5579 5577 5577 5577 5578 5580 5581 5581 5582 5583 5583 5583 5583 5584 5585 5587 5589 5591 5593 5595 5597 5599 5601 5602 5602 5603 5604 5605 5606 5607 5609 5609 5610 5611 5611 5611 5610 5609 5608 5606 5605 5602
5556 5555 5555 5555 5555 5557 5559 5561 5563 5565 5565 5566 5567 5567 5568 5569 5571 5573 5576 5578 5581 5583 5586 5589 5591 5593 5594 5595 5596 5597 5598 5599 5601 5601 5602 5603 5603 5603 5602 5601 5600 5599 5597 5594
5531 5530 5531 5532 5535 5538 5540 5543 5546 5548 5550 5551 5552 5553 5554 5555 5557 5560 5563 5566 5569 5571 5575 5579 5582 5584 5586 5588 5589 5590 5591 5592 5593 5594 5595 5595 5595 5595 5594 5593 5592 5591 5589 5587
5509 5509 5510 5512 5516 5519 5523 5527 5530 5533 5535 5537 5538 5540 5541 5543 5545 5548 5551 5554 5557 5561 5565 5568 5572 5575 5578 5580 5582 5583 5584 5585 5586 5587 5587 5588 5588 5587 5587 5586 5584 5583 5581 5579